Wind_Speed
17 17 17 17 17 18 18 19 19 19 19 19 19 20 20 21 22 23 23 24 24 25 26 26 26 27 27 27 28 28 28 28 29 29 29 29 29 29
18 19 19 20 20 21 21 21 21 21 22 22 23 23 23 24 25 26 27 27 28 29 30 30 30 30 31 31 32 32 32 33 33 33 33 33 34 34
20 21 22 23 23 23 23 24 24 24 25 26 26 26 26 27 28 28 29 30 31 32 32 33 33 34 35 35 35 36 36 37 37 37 37 37 38 38
22 23 23 24 24 25 25 26 26 26 27 28 29 29 29 30 30 31 32 33 33 34 34 35 36 37 38 38 39 39 39 40 40 41 41 41 42 42
23 24 24 25 25 26 26 27 27 28 28 29 31 32 33 33 33 34 35 36 36 37 38 38 39 40 41 41 42 43 43 43 44 44 45 44 45 45
25 25 25 25 26 26 27 28 28 29 30 31 33 34 35 36 37 38 38 39 40 41 42 42 42 43 44 45 45 46 47 48 48 48 48 48 48 48
25 26 26 27 27 28 29 30 30 31 33 34 36 37 38 39 40 41 41 42 43 44 45 46 46 47 48 49 50 50 51 51 52 52 53 53 53 53
26 27 27 28 29 31 31 32 34 35 37 38 40 41 41 42 43 44 44 45 46 47 49 49 51 52 53 54 54 55 56 56 56 56 56 56 56 56
27 28 29 31 32 32 34 36 37 39 40 41 42 43 44 45 46 48 49 50 50 51 53 54 55 56 57 58 59 59 60 60 60 60 59 59 58 58
28 30 32 34 35 36 37 39 40 41 42 43 45 46 47 48 50 51 52 54 55 57 58 59 59 61 61 62 63 63 63 63 62 62 62 62 61 61
31 33 35 36 37 38 40 41 43 44 45 46 48 49 51 53 54 56 57 58 59 61 63 64 64 64 64 64 64 65 64 64 64 64 64 65 65 64
35 36 37 38 39 40 42 44 45 47 49 50 52 53 55 57 59 60 62 63 64 64 65 66 67 67 65 64 65 65 65 65 65 65 65 65 66 66
37 38 39 40 41 43 45 46 48 50 52 54 56 58 60 61 62 64 65 65 66 66 66 66 65 65 65 64 63 63 63 64 64 64 64 64 65 65
39 40 41 42 44 46 48 50 52 54 56 58 59 61 62 63 63 64 65 65 66 66 65 64 63 62 61 60 59 59 60 61 61 61 61 62 62 63
40 41 43 45 47 50 52 54 56 58 59 60 61 62 62 63 63 63 64 64 64 63 62 61 60 59 57 56 54 54 54 54 55 56 56 56 57 58
42 44 46 49 51 53 55 56 58 58 59 60 60 61 61 61 61 60 60 59 57 57 57 56 54 53 51 50 48 47 47 47 47 48 49 50 51 52
45 47 50 52 53 55 56 57 57 58 59 59 59 58 58 57 57 56 55 54 52 51 50 49 48 47 45 44 43 43 42 42 42 42 42 42 44 45
47 49 51 53 54 55 56 56 56 57 57 56 55 54 53 52 51 50 49 48 47 46 44 43 41 40 40 39 39 38 37 36 36 37 37 37 37 40
48 50 51 52 52 53 53 53 53 53 52 51 50 48 47 46 45 44 43 42 41 40 39 38 36 35 34 33 34 34 32 32 32 32 33 33 32 33
48 48 49 49 49 49 49 49 48 48 47 46 44 43 42 42 40 39 38 37 36 35 34 33 33 31 30 29 29 31 31 29 29 28 28 28 28 28
45 46 46 46 46 46 45 45 44 43 42 41 39 39 38 37 36 35 34 33 32 31 30 29 29 28 28 27 26 26 27 27 27 26 25 25 25 25
43 43 43 43 42 42 41 41 40 39 38 37 35 35 34 34 33 31 30 29 28 28 27 26 26 26 26 25 24 24 24 24 24 24 23 22 21 22
40 39 39 38 38 37 37 37 36 34 33 33 32 31 31 30 29 29 28 27 26 25 25 24 24 24 24 23 22 21 21 21 21 22 23 22 21 20
Wind_Direction
256 258 262 265 267 269 271 270 271 272 273 274 274 274 274 274 275 276 278 279 279 279 278 279 278 278 277 276 276 275 274 272 271 270 269 269 268 267
261 263 266 270 271 273 273 272 272 273 275 275 276 274 274 273 274 276 277 278 278 278 278 278 278 277 277 276 275 275 274 272 272 270 269 268 268 267
262 266 269 271 273 274 275 275 274 274 276 277 276 275 275 275 276 275 275 276 277 277 277 277 277 276 276 276 274 274 273 272 271 271 270 269 268 266
263 266 270 273 275 275 276 277 277 277 277 278 278 277 277 276 276 276 277 277 276 276 277 276 276 275 275 275 274 274 273 272 271 270 269 269 268 267
265 268 269 272 274 275 277 278 279 279 279 279 280 280 280 279 279 279 279 278 278 278 277 276 276 275 274 274 273 273 273 272 271 270 269 269 268 267
266 267 268 270 273 275 278 280 280 280 281 281 281 281 281 281 281 281 280 279 279 279 278 278 277 276 275 274 274 273 273 273 271 270 269 269 268 268
267 269 269 271 273 275 279 280 281 281 282 282 282 281 282 281 281 281 280 280 280 280 279 278 277 276 275 274 273 273 273 271 270 269 269 269 268 267
269 270 271 274 276 278 279 280 281 282 282 283 283 283 282 282 282 281 280 280 280 280 280 279 278 277 276 275 274 273 271 270 270 269 268 268 267 266
272 273 274 275 277 280 281 282 283 283 283 283 283 283 283 283 282 282 281 281 280 279 279 278 278 277 277 275 274 273 272 271 269 268 267 266 265 265
276 278 279 279 280 281 282 283 283 283 283 283 283 283 283 283 283 283 283 282 281 280 279 278 277 277 276 276 275 273 272 271 269 268 267 265 265 264
281 281 280 280 281 282 283 284 284 284 284 284 284 284 284 284 284 284 283 283 282 281 280 279 278 276 276 275 274 273 272 271 269 268 267 266 265 264
282 282 281 282 282 283 285 285 285 286 286 286 286 286 286 286 285 285 284 284 283 282 280 280 279 278 276 275 274 273 272 271 269 268 267 266 265 264
283 283 283 284 285 286 286 286 286 286 286 287 287 287 287 287 287 286 285 284 284 283 282 281 280 279 278 276 274 273 272 271 270 269 268 267 266 266
284 285 286 287 288 288 288 288 287 287 288 288 288 288 288 288 287 286 286 285 284 284 283 282 281 280 279 278 276 274 273 272 271 270 269 269 268 267
288 289 289 290 290 290 289 289 289 289 290 290 290 290 289 288 288 287 287 286 286 286 285 284 283 282 281 280 278 276 274 273 272 271 270 269 268 267
292 291 291 291 291 291 291 291 291 292 292 292 291 291 290 289 289 288 288 288 288 288 287 286 285 284 283 282 281 279 276 274 273 272 271 270 270 269
293 293 292 292 292 292 293 293 293 293 293 293 292 292 291 291 291 290 290 289 289 289 288 288 287 286 285 283 282 280 279 277 276 275 274 272 271 271
294 294 294 294 294 294 295 295 295 295 295 295 295 295 294 294 293 293 292 291 291 290 288 287 286 286 286 286 285 282 280 278 278 277 276 274 272 272
296 296 296 296 297 297 297 297 298 298 298 298 298 297 297 296 296 294 294 294 293 292 290 288 287 285 284 285 286 286 283 281 281 281 279 277 275 273
299 299 300 300 300 301 301 301 301 301 301 301 300 300 300 299 298 297 297 296 294 293 291 290 289 287 285 284 284 285 286 285 284 284 282 280 278 277
303 303 303 303 303 304 304 304 304 303 303 303 303 303 303 303 302 301 300 299 297 295 293 291 290 290 289 287 286 285 285 286 287 285 283 281 280 280
306 306 306 306 306 307 308 308 307 306 305 305 306 306 306 306 306 304 303 302 300 298 296 293 292 292 291 289 287 287 286 287 289 289 287 283 281 279
310 310 310 310 310 312 313 313 312 311 310 310 309 310 311 311 310 309 308 306 303 300 298 296 294 294 294 292 289 288 286 285 286 288 290 289 287 285
Height
5868 5869 5869 5869 5869 5869 5869 5869 5869 5868 5868 5867 5866 5865 5865 5864 5863 5862 5861 5860 5859 5858 5857 5856 5855 5854 5853 5852 5851 5850 5849 5848 5847 5847 5846 5845 5845 5844
5864 5864 5864 5864 5864 5864 5863 5863 5863 5863 5862 5861 5861 5860 5859 5858 5857 5856 5854 5853 5852 5851 5850 5848 5847 5846 5845 5843 5842 5841 5840 5839 5838 5838 5837 5837 5836 5835
5859 5859 5858 5858 5858 5857 5857 5856 5856 5855 5854 5853 5853 5852 5852 5850 5849 5848 5847 5845 5844 5842 5841 5839 5838 5836 5835 5834 5833 5831 5830 5829 5828 5828 5827 5826 5826 5825
5853 5853 5853 5852 5851 5851 5850 5849 5849 5848 5847 5845 5844 5843 5843 5842 5840 5839 5837 5836 5834 5832 5831 5829 5827 5826 5825 5823 5822 5820 5819 5818 5817 5816 5815 5815 5814 5813
5847 5846 5846 5845 5845 5844 5843 5842 5841 5840 5839 5838 5836 5834 5833 5832 5830 5829 5827 5825 5824 5822 5820 5818 5816 5814 5812 5811 5809 5808 5807 5805 5804 5803 5802 5801 5801 5800
5840 5840 5839 5838 5838 5837 5836 5835 5833 5832 5831 5829 5827 5825 5823 5821 5820 5818 5816 5814 5812 5810 5808 5806 5804 5802 5800 5798 5796 5794 5793 5791 5790 5789 5788 5787 5786 5786
5834 5833 5832 5831 5830 5830 5828 5827 5825 5823 5821 5819 5817 5815 5813 5811 5809 5806 5804 5802 5800 5797 5795 5793 5790 5788 5786 5784 5782 5780 5778 5776 5774 5773 5772 5771 5770 5770
5827 5826 5825 5824 5823 5821 5820 5818 5816 5814 5812 5809 5807 5804 5802 5799 5797 5794 5792 5790 5787 5784 5781 5779 5775 5773 5770 5767 5765 5763 5760 5759 5757 5756 5755 5754 5753 5753
5820 5819 5817 5816 5814 5812 5810 5808 5806 5804 5801 5798 5795 5792 5789 5786 5784 5781 5777 5775 5772 5769 5765 5763 5759 5756 5753 5750 5746 5744 5742 5740 5739 5737 5736 5735 5735 5735
5812 5811 5809 5807 5805 5803 5800 5798 5795 5792 5789 5786 5783 5779 5776 5772 5769 5766 5762 5759 5755 5751 5748 5746 5742 5738 5735 5730 5726 5724 5722 5720 5718 5717 5717 5716 5716 5716
5804 5802 5800 5797 5795 5792 5789 5786 5782 5779 5775 5772 5768 5764 5760 5756 5752 5749 5745 5741 5737 5732 5727 5724 5721 5718 5715 5711 5706 5702 5700 5699 5697 5696 5695 5695 5694 5695
5794 5792 5789 5786 5783 5780 5777 5773 5769 5765 5761 5757 5752 5748 5743 5739 5734 5730 5726 5721 5717 5712 5707 5703 5699 5695 5694 5691 5686 5681 5678 5676 5675 5674 5673 5672 5672 5672
5784 5781 5778 5775 5771 5768 5764 5760 5756 5751 5746 5741 5736 5731 5725 5720 5715 5709 5704 5700 5695 5690 5685 5681 5677 5673 5670 5669 5666 5661 5657 5654 5653 5652 5651 5650 5650 5650
5772 5769 5766 5762 5759 5755 5750 5746 5741 5735 5730 5725 5719 5713 5707 5701 5695 5689 5684 5678 5672 5668 5663 5659 5655 5652 5649 5647 5645 5641 5637 5633 5632 5631 5630 5630 5629 5629
5760 5757 5753 5749 5744 5739 5735 5729 5724 5718 5712 5706 5700 5694 5688 5682 5676 5670 5663 5658 5651 5646 5641 5638 5635 5632 5628 5626 5624 5621 5618 5616 5612 5611 5611 5610 5610 5609
5748 5744 5739 5734 5729 5723 5718 5712 5706 5700 5694 5687 5681 5675 5668 5662 5656 5650 5645 5639 5634 5628 5622 5618 5615 5613 5611 5608 5605 5603 5600 5599 5597 5595 5594 5593 5592 5591
5735 5730 5724 5719 5713 5707 5700 5694 5688 5682 5675 5669 5662 5656 5650 5643 5637 5632 5627 5622 5617 5613 5608 5602 5599 5596 5594 5592 5589 5587 5585 5583 5582 5580 5579 5579 5577 5576
5721 5715 5709 5703 5696 5690 5683 5677 5670 5664 5657 5651 5645 5639 5633 5627 5621 5616 5611 5607 5602 5598 5594 5590 5587 5584 5581 5578 5575 5574 5572 5570 5569 5567 5566 5565 5565 5563
5707 5700 5694 5687 5680 5673 5667 5660 5654 5647 5641 5635 5629 5624 5618 5613 5607 5602 5597 5593 5589 5584 5580 5577 5575 5573 5571 5568 5564 5561 5560 5559 5558 5556 5554 5554 5553 5552
5692 5685 5678 5672 5665 5658 5652 5646 5639 5633 5627 5621 5616 5610 5605 5600 5595 5590 5585 5581 5577 5573 5570 5566 5564 5562 5560 5559 5557 5553 5550 5549 5548 5546 5545 5543 5543 5542
5678 5671 5665 5658 5652 5645 5639 5633 5626 5620 5615 5609 5604 5599 5594 5588 5584 5579 5575 5570 5567 5563 5560 5557 5554 5552 5550 5549 5547 5545 5543 5540 5539 5537 5536 5535 5534 5533
5665 5659 5652 5646 5640 5634 5627 5621 5615 5609 5604 5599 5594 5589 5584 5579 5574 5569 5565 5562 5558 5555 5552 5549 5546 5544 5542 5540 5539 5537 5535 5533 5531 5529 5528 5527 5526 5526
5655 5648 5642 5636 5629 5623 5618 5611 5605 5599 5594 5589 5584 5580 5575 5570 5566 5561 5557 5554 5550 5547 5544 5542 5539 5537 5535 5533 5531 5530 5528 5527 5525 5523 5521 5520 5519 5518